Location: *
(50.3194°N, 7.1067°E)
Time: 15:13:48
(UTC+00:00)

Cosmos 1943 - Pass Details

Date: 22 September 2019
Orbit: 833 x 851 km, 71.0° (Epoch: 15 October)

Event Time Altitude Azimuth Distance (km) Brightness Sun altitude
Rises 20:14:11 0° 331° (NNW) 3,427 7.4 -25.4°
Reaches altitude 10° 20:16:41 10° 334° (NNW) 2,486 6.4 -25.7°
Maximum altitude 20:22:22 68° 57° (ENE) 915 3.2 -26.4°
Enters shadow 20:22:31 67° 67° (ENE) 916 3.1 -26.5°
